Regional Weather Roundup
Issued by NWS

Home | Current Version | Previous Version | Graphics & Text | Print | Product List | Glossary Off
Versions: 1 2 3 4 5 6 7 8 9 10 11 12 13 14 15 16 17 18 19 20 21 22 23 24 25 26 27 28 29 30 31 32 33 34 35 36 37 38 39 40 41 42 43 44 45 46 47 48 49 50

000
ASUS45 KPSR 221010
RWRAZ

ARIZONA HOURLY REGIONAL WEATHER ROUNDUP
NATIONAL WEATHER SERVICE PHOENIX AZ
300 AM MST FRI MAY 22 2015

NOTE: FAIR INDICATES FEW OR NO CLOUDS BELOW 12,000 FEET WITH NO
SIGNIFICANT WEATHER AND/OR OBSTRUCTIONS TO VISIBILITY.

AZZ001>003-036-221100-
NORTHWEST ARIZONA

CITY           SKY/WX    TMP DP  RH WIND       PRES   REMARKS
BULLHEAD CITY  MOCLDY    68  36  30 CALM      29.80R
KINGMAN        MOCLDY    58  32  37 S8        29.88R
$$

AZZ004>008-015-016-018-221100-
NORTH CENTRAL ARIZONA

CITY           SKY/WX    TMP DP  RH WIND       PRES   REMARKS
GRAND CANYON   PTCLDY    28  26  92 CALM      30.02S
WILLIAMS       MOCLDY    43  27  52 S7        30.08S
PRESCOTT       PTCLDY    49  32  52 S6        29.97S
FLAGSTAFF      MOCLDY    31  26  82 CALM      30.03F
PAYSON         PTCLDY    46  30  53 CALM      30.01S
$$

AZZ009>014-017-221100-
NORTHEAST ARIZONA

CITY           SKY/WX    TMP DP  RH WIND       PRES   REMARKS
WINSLOW        MOCLDY    45  30  55 SW5       29.99S
SAINT JOHNS    CLOUDY    50  26  39 SE6       30.02R
WINDOW ROCK    CLEAR     36  29  75 CALM      30.06S
SHOW LOW       CLOUDY    46  18  31 S8G16     30.04F
$$

AZZ023-221100-
GREATER PHOENIX AREA

CITY           SKY/WX    TMP DP  RH WIND       PRES   REMARKS
PHOENIX        MOCLDY    70  41  34 E10       29.85S
BUCKEYE          N/A     66  41  39 E6        29.86S
LUKE AFB       MOCLDY    69  40  35 SW8       29.84S
DEER VALLEY    MOCLDY    68  40  35 S5        29.86F
SCOTTSDALE     MOCLDY    68  33  27 SE5       29.89R
MESA-GATEWAY   MOCLDY    63  37  39 E8        29.89S
$$

AZZ027-028-221100-
SOUTHWEST MARICOPA COUNTY AND PINAL COUNTY

CITY           SKY/WX    TMP DP  RH WIND       PRES   REMARKS
CASA GRANDE    MOCLDY    66  39  37 SE5       29.87S
GILA BEND      FAIR      68  39  34 W1        29.84S HAZE
$$

AZZ503-504-507>509-221100-
SOUTHEAST ARIZONA

CITY           SKY/WX    TMP DP  RH WIND       PRES   REMARKS
TUCSON         CLEAR     60  28  29 SE6       29.94F
DAVIS-MONTHAN  PTCLDY    58  28  31 SE5       29.92F
NOGALES        CLEAR     49  21  33 E5        29.97F
SIERRA VISTA   CLEAR     59  17  19 SW14      30.01S
DOUGLAS        CLEAR     49  24  37 CALM      29.99F
SAFFORD        CLEAR     56  30  37 W5        29.93R
$$

AZZ020-021-025-026-031-221100-
SOUTHWEST ARIZONA

CITY           SKY/WX    TMP DP  RH WIND       PRES   REMARKS
YUMA           CLOUDY    64  42  44 NW13G22   29.86S
$$

CAZ031-033-041-043-047-048-061-221100-
SOUTHERN CALIFORNIA

CITY           SKY/WX    TMP DP  RH WIND       PRES   REMARKS
DOWNTOWN L.A.  MOCLDY    58  53  84 CALM      29.97S
L.A. AIRPORT   MOCLDY    57  53  86 W15       29.98S
SAN DIEGO      MOCLDY    62  49  62 W9        30.02S
BURBANK        MOCLDY    58  48  69 W3        29.96F
ONTARIO        MOCLDY    55  46  71 SW6       29.97F
RIVERSIDE      CLOUDY    57  46  66 VRB6      29.98S
PALM SPRINGS   CLEAR     66  41  40 NW12G22   29.84S
EL CENTRO NAS  CLEAR     64  42  44 W24       29.89R
IMPERIAL       CLEAR     63  43  48 W21G30    29.85S
BLYTHE         CLEAR     62  45  53 CALM      29.83R
NEEDLES        MOCLDY    69  36  29 SW9       29.79S
$$

NVZ020-UTZ003-221100-
SOUTHERN NEVADA-UTAH

CITY           SKY/WX    TMP DP  RH WIND       PRES   REMARKS
LAS VEGAS      CLOUDY    64  39  39 S16       29.76R
SALT LAKE CITY MOCLDY    54  46  74 SW9       29.89S
$$

NMZ009-TXZ055-221100-
NEW MEXICO-WEST TEXAS

CITY           SKY/WX    TMP DP  RH WIND       PRES   REMARKS
ALBUQUERQUE    PTCLDY    49  41  74 NE7       30.08F
EL PASO        MOCLDY    57  51  80 SE3       30.04S
$$


........................KEY........................
SKY/WX - SKY CONDITION/WEATHER
TMP    - TEMPERATURE IN FAHRENHEIT
DP     - DEW POINT IN FAHRENHEIT
RH     - RELATIVE HUMIDITY IN PERCENT
WIND   - DIRECTION AND SPEED IN MILES PER HOUR (MPH)
VRB    - VARIABLE WIND DIRECTION
PRES   - MEAN SEA LEVEL PRESSURE IN INCHES OF MERCURY
         F - FALLING PRESSURE   R - RISING PRESSURE
         S - STEADY PRESSURE
VSB    - VISIBILITY IN MILES
HX     - HEAT INDEX IN FAHRENHEIT
WCI    - WIND CHILL INDEX IN FAHRENHEIT
TC     - TEMPERATURE IN CELSIUS WHICH IS ALSO KNOWN AS
         TEMPERATURE IN CENTIGRADE
AFB    - AIR FORCE BASE
         LUKE AFB IS LUKE AIR FORCE BASE
         DAVIS-MONTHAN IS DAVIS-MONTHAN AIR FORCE BASE
NAS    - NAVAL AIR STATION
         EL CENTRO NAS IS EL CENTRO NAVAL AIR STATION
N/A    - NOT AVAILABLE




USA.gov is the U.S. government's official web portal to all federal, state and local government web resources and services.